Theta_e
352 356 360 361 361 362 361 360 360 358 358 357 354 354 354 354 356 356 356 355 352 350 349 348 347 347 347 349 351 349 349 352
352 357 359 362 362 361 360 359 360 360 359 358 356 354 354 354 355 355 355 354 352 350 348 347 347 348 350 350 351 352 352 348
351 356 358 362 361 360 361 360 360 359 359 358 358 357 356 355 355 355 354 354 353 351 350 348 349 351 351 352 352 352 353 350
349 352 355 357 358 360 360 360 360 360 359 359 358 358 357 357 356 356 355 355 354 354 354 353 353 353 353 353 354 355 356 353
346 349 347 352 354 354 356 360 360 360 360 359 359 359 358 358 358 358 356 356 356 356 356 355 355 355 355 354 354 354 355 354
341 343 345 347 348 350 352 356 359 358 359 360 359 359 356 351 352 353 356 357 358 358 357 357 357 357 357 357 357 357 356 347
337 340 343 343 345 345 353 353 351 352 352 352 352 352 350 348 346 351 354 357 358 358 358 358 357 358 358 353 351 355 353 348
338 339 341 341 342 341 347 351 349 348 349 348 347 348 347 348 344 350 348 351 351 356 353 354 353 354 352 350 349 345 350 348
339 338 340 340 340 340 346 344 344 344 344 345 345 346 346 342 341 343 348 347 348 349 349 345 345 347 347 346 344 344 344 347
336 339 340 341 341 344 344 341 341 342 341 342 342 345 347 344 341 340 341 345 347 345 344 342 343 344 345 346 348 344 339 341
338 338 343 342 346 346 346 348 341 342 342 341 341 343 344 341 339 341 338 338 337 340 342 344 345 343 346 346 344 345 344 343
346 344 344 347 345 347 346 351 349 345 346 345 344 344 343 344 343 344 341 338 340 339 337 339 338 340 341 343 341 342 344 343
346 347 346 351 349 352 349 352 351 349 350 345 347 348 346 345 343 344 340 338 339 339 338 335 336 336 336 341 341 339 335 338
350 347 347 350 351 353 353 352 351 351 350 349 350 348 348 348 347 343 342 343 343 343 338 336 336 336 338 336 338 331 338 337
347 348 349 351 352 353 352 352 352 348 349 352 351 352 351 350 349 347 343 342 343 340 342 342 339 336 335 330 339 331 335 333
344 344 347 349 349 351 352 349 350 349 351 347 343 344 343 344 347 347 347 344 341 337 336 334 333 329 330 329 326 325 327 331
339 341 344 347 348 347 346 347 349 348 345 342 341 342 341 338 339 339 338 341 340 335 334 332 328 326 327 328 322 318 316 320
336 336 338 342 344 342 345 345 345 346 343 339 340 337 338 337 338 337 337 336 337 337 332 330 329 326 323 326 324 319 314 312
335 337 337 338 338 340 340 341 340 334 333 335 337 336 334 334 334 335 333 332 331 332 331 333 336 332 327 324 325 328 324 320
Wind_Speed
14 12 17 18 18 17 17 16 15 15 14 13 13 13 13 11 9 9 9 8 9 8 7 6 5 4 3 4 5 5 6 6
15 12 13 19 18 18 17 17 15 14 13 13 13 13 12 11 9 8 8 7 7 7 6 5 3 1 2 4 7 7 6 6
16 12 12 17 17 16 15 15 14 13 11 12 11 10 10 9 8 8 7 7 7 7 5 5 4 4 4 6 7 9 8 7
16 12 8 9 12 15 14 13 13 12 11 10 10 10 10 9 9 9 8 8 8 7 6 6 6 7 7 7 8 9 11 12
16 13 9 7 7 7 8 13 12 12 11 10 10 9 9 9 9 9 9 9 9 8 8 8 8 9 9 10 10 10 11 13
15 16 14 11 7 7 7 9 11 14 12 11 10 10 8 4 6 8 8 11 11 10 9 10 11 10 10 11 12 12 14 4
19 18 17 16 13 12 10 9 7 8 4 5 5 6 4 6 5 9 11 16 15 13 12 12 13 12 11 6 6 11 6 5
20 15 18 18 16 15 11 8 5 5 6 6 8 7 7 6 5 6 5 6 5 12 5 9 8 7 8 6 7 5 6 6
20 20 20 18 15 15 9 8 9 8 7 6 9 11 7 5 5 5 4 6 5 5 7 7 5 8 9 4 8 3 7 5
17 19 20 18 13 11 12 8 8 9 8 9 8 10 8 6 5 4 4 5 6 5 6 6 8 7 5 7 4 7 7 7
11 17 18 16 11 14 11 8 8 7 9 8 8 9 11 6 5 3 3 3 4 5 6 7 8 5 7 6 8 10 7 8
7 12 10 10 8 9 8 5 5 5 6 6 8 8 9 6 5 4 2 3 4 4 6 3 4 2 2 3 6 3 6 8
8 9 6 8 8 7 6 4 2 1 1 2 4 5 11 8 7 4 2 3 4 4 3 3 3 4 4 5 7 4 1 4
9 7 8 7 4 6 7 5 4 3 3 4 3 4 8 7 6 5 3 3 4 4 4 3 2 2 3 2 4 2 2 3
10 10 11 8 3 5 2 3 2 2 3 4 4 2 5 6 6 5 4 4 4 3 5 6 5 4 4 4 2 2 2 2
9 10 11 11 8 5 2 1 1 3 2 6 7 12 11 12 13 11 8 6 6 6 4 5 4 5 3 4 4 1 2 2
7 8 10 9 9 7 3 1 1 4 7 6 7 11 13 12 12 10 9 7 6 5 6 5 5 4 2 2 2 1 5 1
7 7 7 7 8 8 6 4 4 5 4 4 6 6 9 10 11 10 7 7 8 5 4 3 2 3 3 3 1 1 3 3
6 7 7 7 7 7 7 9 12 6 8 3 4 3 6 9 10 9 7 7 5 4 6 5 3 1 0 4 1 3 4 3
Wind_Direction
124 133 138 140 139 139 140 140 137 135 130 128 126 124 122 120 114 116 117 119 119 117 109 102 88 70 38 352 330 326 330 349
130 138 140 143 145 145 146 144 140 140 138 135 133 134 134 136 136 139 138 136 132 131 128 120 112 87 343 315 309 311 313 324
131 137 145 145 147 145 147 146 144 143 142 140 139 139 143 148 153 157 160 158 160 161 164 171 189 214 238 265 281 295 303 293
130 133 134 143 149 147 149 148 147 148 149 150 150 153 158 166 172 176 180 180 181 186 195 210 221 232 241 257 276 289 298 304
137 139 146 142 141 139 148 150 151 153 156 158 161 168 174 183 190 194 194 197 200 200 210 231 240 248 254 255 256 265 275 291
148 152 150 152 156 151 144 161 157 163 167 172 175 181 186 193 207 210 207 213 211 211 218 233 245 254 265 272 270 262 261 243
156 161 159 158 169 167 166 160 164 174 172 178 182 192 199 218 215 213 213 217 208 212 218 229 243 246 254 252 258 256 248 229
164 162 167 165 171 172 167 166 173 175 180 189 194 189 206 220 224 218 217 212 194 216 224 228 240 233 229 234 248 262 233 216
168 173 169 168 172 176 152 170 178 180 184 194 201 194 198 210 218 227 183 197 186 206 222 237 232 230 222 234 258 203 234 230
168 168 167 166 164 149 156 180 184 190 187 197 197 198 195 205 219 220 192 182 201 200 217 228 249 243 233 206 233 222 250 247
136 155 156 166 143 155 158 174 193 191 194 188 194 201 199 198 208 240 254 241 193 193 217 223 239 220 210 186 204 240 250 29
85 126 135 147 147 139 144 146 150 199 166 166 195 189 194 189 192 179 251 271 283 297 292 302 289 261 238 201 222 82 88 93
87 94 124 148 143 138 147 142 160 262 325 232 190 178 189 193 194 185 222 272 280 287 292 294 302 319 326 24 70 50 78 225
50 59 60 92 129 152 164 165 175 223 246 233 235 186 186 186 192 176 196 263 299 305 297 298 317 16 59 77 119 77 350 327
48 43 46 44 90 170 172 139 155 241 233 232 253 292 191 178 179 171 194 230 312 322 13 8 11 356 25 11 47 119 218 237
49 49 47 40 27 52 5 190 307 214 294 44 36 42 44 49 39 41 40 47 41 48 40 29 1 13 346 11 332 34 235 247
64 56 55 47 41 42 49 9 342 93 64 71 67 57 62 52 53 39 38 36 37 38 23 24 11 342 301 7 49 352 327 80
84 75 70 55 63 42 11 38 55 77 68 54 52 59 51 51 47 46 23 36 29 34 15 349 11 4 327 339 79 206 330 277
116 102 99 80 66 52 26 73 83 89 89 64 74 87 63 55 50 51 48 35 15 21 18 359 355 284 253 274 272 222 232 193